RH
56 58 56 57 66 64 66 68 69 65 56 53 57 67 73 84 87 89 90 86 63 46 42 40 25 17 10 10 11 14 16 17 17 15 14 13 14 14 14 14 14 13 13
54 57 57 59 67 65 66 71 70 67 61 56 61 72 78 82 89 90 94 82 74 46 37 39 23 14 10 11 15 17 18 17 15 14 14 15 15 16 16 15 14 14 15
52 57 58 61 68 66 69 70 68 67 66 64 68 79 86 80 94 95 86 60 62 48 36 36 20 13 11 16 18 18 16 15 16 17 17 16 16 16 16 15 15 16 16
56 61 58 65 67 67 68 67 68 70 71 73 77 80 84 88 92 91 70 50 53 55 34 33 16 12 14 18 18 18 17 17 17 18 17 16 16 15 15 15 16 16 14
61 64 63 66 67 68 69 71 72 75 80 82 83 83 90 86 95 89 69 59 65 46 36 32 14 12 16 18 18 17 17 18 18 17 16 16 15 15 15 16 17 16 12
64 62 66 65 68 72 73 75 78 83 91 92 89 87 86 94 83 92 71 70 55 35 43 23 13 14 17 18 18 18 17 16 17 16 16 15 15 16 17 18 16 12 10
63 63 62 62 68 76 77 82 86 88 93 94 93 89 91 98 94 88 68 51 44 34 46 18 13 15 17 18 17 17 17 17 17 16 15 15 16 18 19 17 14 11 10
64 64 60 68 73 79 82 84 88 93 93 93 96 88 63 99 98 96 72 60 42 38 48 15 14 16 17 18 17 17 16 16 16 15 15 17 19 20 18 15 12 12 12
66 61 56 70 70 80 83 86 95 97 95 96 91 79 39 75 87 95 81 65 46 39 53 15 15 16 17 17 17 17 17 16 15 15 17 19 20 20 18 15 14 14 14
69 63 58 72 75 81 83 92 96 100 98 100 76 47 35 50 59 74 78 68 51 41 52 15 15 16 17 17 18 17 16 15 15 17 20 21 21 21 19 17 16 15 15
80 75 68 82 80 84 87 89 92 97 93 92 69 47 34 30 47 49 68 69 54 43 49 16 16 16 17 17 17 17 15 14 16 20 21 21 22 22 22 21 20 19 19
80 86 82 84 86 84 89 90 86 81 90 56 51 48 37 29 22 48 52 56 36 43 43 16 16 16 17 17 16 16 14 14 19 22 22 22 22 22 22 22 22 21 20
79 92 86 88 82 80 96 95 88 84 63 50 50 46 35 20 13 12 25 40 22 42 34 16 16 16 17 17 16 15 13 15 21 23 24 23 23 23 22 19 18 17 16
78 86 82 86 83 76 100 94 72 71 67 47 48 40 31 16 12 12 11 12 29 41 24 16 16 16 16 16 15 14 13 16 22 24 24 24 24 24 23 20 17 15 15
78 85 86 84 82 76 95 92 84 73 54 48 48 40 34 16 13 14 15 17 33 39 20 17 16 16 15 15 14 14 13 16 22 24 25 26 25 25 24 23 21 19 18
80 81 90 81 85 84 79 81 85 66 48 46 44 34 31 21 14 14 19 29 36 30 18 17 15 15 14 14 14 14 12 14 21 24 26 27 26 27 28 27 25 24 23
78 80 93 83 85 93 88 68 54 50 47 49 44 32 28 22 14 14 16 20 21 18 17 16 15 14 13 13 13 13 12 12 17 24 26 28 28 27 27 27 27 26 25
82 81 90 82 88 91 79 55 40 43 45 50 42 32 24 22 16 15 14 15 15 15 15 14 14 13 13 13 13 13 12 12 14 21 26 28 28 28 27 28 28 27 25
85 82 90 87 93 83 75 44 37 40 46 45 38 30 22 20 17 15 15 14 14 14 13 13 13 13 13 12 13 13 12 13 14 17 23 27 29 28 27 27 26 27 27
88 87 90 95 91 79 74 42 44 46 45 41 35 27 21 18 15 14 14 14 14 13 13 12 12 12 12 12 12 12 12 13 14 15 20 26 27 27 27 26 26 26 26
86 84 88 100 89 71 64 46 48 47 43 39 33 26 20 16 13 12 12 13 12 12 12 12 12 11 11 12 12 13 13 14 14 15 17 22 26 26 27 27 26 26 25
78 78 93 94 71 66 54 50 50 47 43 38 32 24 20 15 13 12 11 11 11 11 11 11 11 11 12 12 12 12 13 14 15 16 17 19 24 27 28 27 26 25 26
80 77 82 78 63 56 52 51 49 45 43 38 32 22 19 14 13 12 11 11 11 11 11 11 11 11 12 12 12 13 13 13 16 17 19 21 23 26 28 28 27 26 24
68 74 77 71 64 55 51 51 50 48 48 40 32 22 18 15 14 14 13 12 12 12 12 12 12 12 12 13 12 13 13 13 13 15 19 22 24 26 26 26 26 25 24
62 70 73 75 72 64 58 56 56 54 49 41 32 22 21 19 17 16 16 15 15 14 13 12 12 12 12 12 14 14 14 14 15 15 16 18 23 25 24 24 24 25 25
65 64 69 70 70 68 65 63 59 54 48 43 33 27 24 28 24 23 23 22 20 19 17 14 13 13 13 12 12 14 15 15 16 16 15 17 15 17 18 23 23 24 26
Wind_Speed
6 9 12 12 12 11 10 9 9 8 8 9 9 10 11 11 13 13 14 13 16 14 13 14 14 14 16 19 19 20 19 18 18 19 20 21 21 20 18 18 17 16 14
8 10 13 14 13 11 11 10 10 8 8 9 10 10 11 10 11 13 14 15 14 10 12 13 12 15 18 19 18 19 18 18 19 19 19 20 19 18 17 15 14 13 12
10 13 15 16 14 13 13 11 9 8 8 9 9 9 11 9 9 13 11 11 11 10 11 11 12 15 17 18 18 18 18 18 19 18 18 17 17 16 14 13 13 12 12
10 17 17 16 14 13 12 10 9 8 8 7 7 8 6 11 12 12 11 12 13 7 7 10 12 15 16 17 16 17 18 17 17 16 15 15 15 13 13 13 12 12 11
11 19 18 16 14 13 12 11 10 9 8 10 10 5 5 10 11 12 13 14 12 6 8 10 13 15 16 15 15 14 16 17 15 14 13 12 12 12 12 11 11 11 10
13 18 17 15 14 13 12 11 11 10 11 14 7 5 6 10 3 10 13 12 10 7 9 11 14 15 15 15 13 13 14 13 13 11 10 10 10 11 10 10 10 10 10
16 18 16 15 14 13 12 12 11 11 11 9 5 4 8 8 5 12 13 11 9 9 9 12 14 15 15 14 12 12 11 11 10 10 9 9 9 10 9 9 8 8 9
16 18 17 15 14 13 12 11 11 10 9 7 7 5 3 9 14 14 17 11 8 11 11 13 14 14 13 12 11 11 10 9 9 8 8 8 8 8 8 8 8 8 9
16 18 18 16 14 14 13 12 12 11 10 10 9 7 6 9 8 16 18 16 10 10 12 13 14 14 12 11 9 9 9 7 7 7 7 7 8 8 8 8 8 8 9
17 18 17 15 14 13 13 13 12 12 11 16 13 8 8 12 14 17 19 13 9 12 12 15 15 14 12 10 7 7 6 6 6 6 6 6 7 8 8 8 8 8 9
17 18 17 15 14 14 13 13 10 15 13 12 15 12 8 9 9 11 14 14 11 12 13 14 14 14 12 9 7 6 4 5 5 5 6 6 7 7 7 8 9 9 10
17 18 17 13 13 12 12 13 16 10 18 17 10 7 6 6 8 11 11 13 13 13 14 14 13 12 11 8 5 3 3 4 4 4 5 5 7 8 8 9 9 9 10
18 16 14 14 14 11 15 20 18 21 22 12 8 6 6 6 7 9 11 11 13 14 14 14 13 11 9 7 4 3 3 3 3 3 4 5 6 8 9 10 10 11 12
18 19 17 17 14 8 17 23 23 20 14 10 7 4 6 6 7 8 10 12 14 14 14 14 12 11 8 6 5 4 2 2 1 2 3 5 6 8 9 11 11 13 13
20 20 20 18 15 13 25 24 26 20 14 11 8 5 4 7 6 7 10 13 16 15 15 13 11 8 7 6 5 4 2 2 1 1 3 4 5 6 7 9 11 12 13
22 21 24 21 19 16 16 17 15 14 12 11 8 5 4 6 7 8 10 13 14 14 14 13 10 8 7 6 5 4 4 3 2 2 3 4 5 6 8 9 10 12 13
24 23 26 21 22 18 16 14 15 14 14 11 8 6 5 8 10 10 12 13 13 13 11 10 9 9 8 7 6 5 6 6 6 5 5 5 6 7 8 9 10 11 12
25 25 28 25 22 21 18 15 15 16 15 12 8 7 8 9 11 11 11 12 12 12 11 10 10 9 8 9 8 8 8 8 8 8 7 8 8 8 9 10 11 11 13
26 26 32 34 22 22 19 17 16 16 14 11 9 8 8 9 11 13 13 13 12 12 12 12 11 11 11 11 11 10 10 10 10 11 10 10 9 10 12 12 12 13 14
28 29 28 25 27 20 19 18 18 16 14 11 9 8 8 10 13 13 13 13 13 13 13 12 12 12 12 13 12 13 13 13 13 13 13 13 13 13 13 14 14 15 16
29 28 27 22 24 21 20 19 18 16 13 11 10 10 11 11 12 12 13 14 14 14 13 13 14 14 15 15 14 15 14 15 15 15 15 15 15 15 15 15 16 16 17
26 27 25 23 23 21 21 20 18 16 14 14 13 12 12 12 12 13 13 14 14 15 15 16 15 15 16 17 16 17 17 17 17 17 17 17 17 17 17 17 17 18 18
29 28 27 24 22 21 21 21 19 18 17 16 14 14 12 13 14 14 15 15 16 16 17 17 16 17 16 18 19 19 19 19 17 19 19 19 19 18 18 18 19 18 19
27 27 26 24 23 23 23 22 20 20 18 17 15 16 16 16 16 16 16 17 17 18 18 18 18 18 19 19 20 21 21 21 20 20 20 20 20 20 20 19 19 20 19
26 27 27 26 25 25 24 23 22 22 20 20 18 19 19 19 19 18 18 19 19 19 19 19 20 20 20 20 20 22 22 22 22 23 22 21 21 22 22 20 19 19 20
27 28 29 29 27 27 26 24 24 24 23 23 22 21 21 21 20 20 20 20 20 20 21 22 23 23 23 24 24 23 23 24 23 25 24 23 24 21 20 19 21 21 21
Wind_Direction
174 199 191 188 182 177 168 161 151 143 137 129 120 109 104 102 104 102 111 103 86 79 79 81 82 91 96 100 99 98 95 97 98 97 95 91 90 89 88 86 83 82 81
220 208 192 188 184 182 174 167 158 158 155 144 134 131 116 111 113 108 111 106 122 75 75 79 87 99 106 105 102 99 102 101 99 99 95 93 91 89 84 84 84 81 79
211 205 193 187 185 182 178 168 165 166 164 154 146 134 134 127 121 126 113 103 93 75 83 88 92 104 107 107 110 111 105 102 98 94 93 92 87 83 81 78 73 71 63
206 198 188 184 182 178 177 168 171 172 162 158 142 140 152 145 147 131 130 111 106 99 83 94 105 113 115 114 109 108 105 97 91 87 84 81 81 78 71 65 61 55 51
203 180 180 179 178 174 173 166 174 168 164 150 128 146 159 183 150 147 140 128 128 148 118 112 117 120 118 113 112 109 103 99 93 88 81 79 73 71 67 61 53 46 46
177 172 175 176 173 171 171 169 173 161 155 157 158 179 207 192 194 165 138 155 160 149 128 118 126 126 121 117 116 108 100 98 91 84 79 75 71 67 62 53 46 47 53
180 175 175 175 173 174 172 171 169 162 163 183 210 186 190 191 199 196 156 151 145 139 131 126 133 133 131 128 124 116 108 99 91 80 69 66 65 62 53 47 55 61 64
184 179 177 177 173 173 173 175 172 173 173 170 149 153 179 178 166 186 175 142 137 139 140 137 139 139 134 130 132 123 112 104 95 85 72 66 68 57 52 53 58 63 65
185 182 180 184 181 177 176 175 172 175 165 162 152 176 166 169 161 177 174 171 145 149 145 144 142 140 140 140 136 124 113 108 97 86 83 73 66 56 49 54 56 57 53
186 186 185 189 188 182 177 172 172 176 177 160 148 145 142 151 162 167 183 173 162 155 155 151 149 148 148 141 141 126 121 107 91 91 79 68 56 52 47 45 46 41 34
183 186 189 191 189 184 181 181 186 178 181 176 164 159 160 155 166 170 163 175 181 168 163 156 156 155 155 158 156 130 133 105 98 90 82 66 54 49 41 35 27 21 17
187 185 188 184 181 188 193 183 182 197 168 152 155 160 153 167 173 175 168 170 178 173 168 161 163 163 159 158 160 139 123 106 110 86 69 49 43 36 27 20 15 7 6
191 185 180 176 178 193 199 197 189 172 162 163 164 163 162 173 174 177 178 175 174 172 170 167 164 169 164 168 174 183 141 143 114 93 65 41 28 25 24 20 10 8 7
194 188 180 178 179 169 190 171 160 166 176 172 170 164 157 165 174 173 174 174 172 175 173 174 174 175 176 180 193 207 173 151 113 66 24 15 11 18 13 17 15 13 11
194 190 177 176 173 147 165 168 153 167 179 175 176 176 176 164 174 182 170 172 173 176 179 178 182 183 190 208 215 222 217 187 178 35 344 0 356 360 0 8 5 9 5
194 191 178 177 172 170 162 175 186 183 182 181 184 182 188 170 185 185 168 175 174 181 183 184 188 197 212 223 227 231 252 247 257 278 300 335 331 342 346 353 353 355 358
197 193 187 187 190 193 188 190 192 185 192 190 188 188 200 195 196 188 181 179 182 185 191 199 204 216 227 234 244 252 252 253 247 259 285 298 308 328 327 329 335 340 341
199 198 194 197 195 193 195 197 196 194 196 192 196 203 204 205 200 199 193 193 192 198 204 216 224 232 242 249 252 253 256 257 259 258 264 283 300 303 305 310 316 322 327
200 200 203 204 195 197 197 202 198 201 201 198 203 212 210 207 207 206 201 207 206 211 218 226 231 235 238 247 250 255 259 263 263 263 266 271 276 286 293 299 303 312 316
201 200 211 205 197 203 201 202 203 206 209 209 212 225 226 217 212 207 208 215 217 221 227 233 241 245 248 250 252 254 255 257 259 260 263 267 276 279 284 294 301 305 311
198 208 211 191 196 206 206 204 206 211 215 223 223 223 227 224 220 214 213 220 224 231 237 242 247 249 252 253 256 258 261 261 263 264 263 267 271 278 283 288 297 302 305
194 204 209 205 206 206 209 208 209 214 222 232 237 233 231 229 229 231 227 230 234 238 243 248 249 254 259 263 264 266 266 267 266 267 267 268 271 277 283 290 295 300 300
202 207 211 213 210 210 213 216 217 221 228 238 244 245 237 233 233 235 239 240 242 244 246 249 254 258 261 267 269 269 269 267 266 268 268 270 273 277 282 289 294 297 300
206 208 213 215 216 218 220 223 226 231 237 244 244 243 239 235 234 237 243 246 248 250 252 254 257 260 262 264 271 272 272 273 273 269 273 275 275 279 283 288 291 295 298
211 211 213 215 218 223 226 231 235 240 245 248 247 246 245 242 238 242 245 248 251 255 260 263 263 265 267 266 266 270 273 276 278 278 277 274 277 281 284 287 289 293 296
216 216 217 220 222 228 233 235 241 247 248 249 248 250 248 248 250 250 252 257 261 264 266 268 269 270 270 271 271 269 271 274 277 279 281 282 283 279 279 284 293 293 294